Time,TemperatureF,DewpointF,PressureIn,WindDirection,WindDirectionDegrees,WindSpeedMPH,WindSpeedGustMPH,Humidity,HourlyPrecipIn,Conditions,Clouds,dailyrainin,SoftwareType,DateUTC
2013-02-05 00:04:00,36.0,34.2,29.72,West,270,2.0,6.0,93,0.00,,,0.09,meteohub,2013-02-04 23:04:00,
2013-02-05 00:09:00,35.8,34.0,29.72,SW,225,2.0,5.0,93,0.00,,,0.00,meteohub,2013-02-04 23:09:00,
2013-02-05 00:14:00,35.8,34.0,29.72,WNW,292,2.0,4.0,93,0.00,,,0.00,meteohub,2013-02-04 23:14:00,
2013-02-05 00:19:00,35.6,33.8,29.72,SE,135,1.0,6.0,93,0.00,,,0.00,meteohub,2013-02-04 23:19:00,
2013-02-05 00:24:00,35.4,33.6,29.72,NW,315,1.0,6.0,93,0.00,,,0.00,meteohub,2013-02-04 23:24:00,
2013-02-05 00:29:00,35.4,33.6,29.72,West,270,2.0,4.0,93,0.00,,,0.00,meteohub,2013-02-04 23:29:00,
2013-02-05 00:34:00,35.4,33.6,29.72,West,270,2.0,4.0,93,0.00,,,0.00,meteohub,2013-02-04 23:34:00,
2013-02-05 00:39:00,35.4,33.6,29.75,West,270,2.0,4.0,93,0.00,,,0.00,meteohub,2013-02-04 23:39:00,
2013-02-05 00:44:00,35.2,33.4,29.75,WNW,292,1.0,4.0,93,0.00,,,0.00,meteohub,2013-02-04 23:44:00,
2013-02-05 00:49:00,35.2,33.6,29.75,WSW,248,5.0,5.0,94,0.00,,,0.00,meteohub,2013-02-04 23:49:00,
2013-02-05 00:55:00,35.2,33.6,29.72,WNW,292,2.0,4.0,94,0.00,,,0.00,meteohub,2013-02-04 23:55:00,
2013-02-05 01:00:00,35.2,33.6,29.72,WNW,292,5.0,5.0,94,0.00,,,0.00,meteohub,2013-02-05 00:00:00,
2013-02-05 01:05:00,35.2,33.6,29.72,WSW,248,4.0,5.0,94,0.00,,,0.00,meteohub,2013-02-05 00:05:00,
2013-02-05 01:10:00,35.6,34.0,29.72,WNW,292,4.0,6.0,94,0.00,,,0.00,meteohub,2013-02-05 00:10:00,
2013-02-05 01:15:00,35.6,34.0,29.72,WSW,248,4.0,6.0,94,0.00,,,0.00,meteohub,2013-02-05 00:15:00,
2013-02-05 01:20:00,35.6,34.0,29.72,West,270,1.0,6.0,94,0.00,,,0.00,meteohub,2013-02-05 00:20:00,
2013-02-05 01:25:00,35.6,34.0,29.69,WNW,292,2.0,6.0,94,0.00,,,0.00,meteohub,2013-02-05 00:25:00,
2013-02-05 01:30:00,35.4,33.8,29.69,WNW,292,4.0,5.0,94,0.00,,,0.00,meteohub,2013-02-05 00:30:00,
2013-02-05 01:35:00,35.4,33.6,29.69,West,270,4.0,5.0,93,0.00,,,0.00,meteohub,2013-02-05 00:35:00,
2013-02-05 01:40:00,35.4,33.6,29.69,NNE,22,4.0,5.0,93,0.00,,,0.00,meteohub,2013-02-05 00:40:00,
2013-02-05 01:45:00,35.4,33.6,29.69,South,180,3.0,5.0,93,0.00,,,0.00,meteohub,2013-02-05 00:45:00,
2013-02-05 01:50:00,35.4,33.8,29.69,WSW,248,2.0,5.0,94,0.00,,,0.00,meteohub,2013-02-05 00:50:00,
2013-02-05 01:55:00,35.2,33.6,29.72,WNW,292,1.0,5.0,94,0.00,,,0.00,meteohub,2013-02-05 00:55:00,
2013-02-05 02:00:00,35.2,33.6,29.72,WSW,248,4.0,5.0,94,0.00,,,0.00,meteohub,2013-02-05 01:00:00,
2013-02-05 02:05:00,35.1,33.4,29.72,SW,225,2.0,5.0,94,0.00,,,0.00,meteohub,2013-02-05 01:05:00,
2013-02-05 02:10:00,35.2,33.6,29.72,SE,135,5.0,6.0,94,0.00,,,0.00,meteohub,2013-02-05 01:10:00,
2013-02-05 02:15:00,35.2,34.0,29.72,South,180,2.0,6.0,95,0.00,,,0.00,meteohub,2013-02-05 01:15:00,
2013-02-05 02:20:00,35.2,34.0,29.72,WSW,248,1.0,6.0,95,0.00,,,0.00,meteohub,2013-02-05 01:20:00,
2013-02-05 02:25:00,35.4,34.2,29.69,West,270,2.0,6.0,95,0.00,,,0.00,meteohub,2013-02-05 01:25:00,
2013-02-05 02:30:00,35.4,34.2,29.69,South,180,3.0,6.0,95,0.00,,,0.00,meteohub,2013-02-05 01:30:00,
2013-02-05 02:38:00,35.4,34.2,29.69,WSW,248,3.0,6.0,95,0.00,,,0.00,meteohub,2013-02-05 01:38:00,
2013-02-05 02:43:00,35.4,34.2,29.72,SSW,202,4.0,6.0,95,0.00,,,0.00,meteohub,2013-02-05 01:43:00,
2013-02-05 02:48:00,35.4,34.2,29.72,SW,225,1.0,5.0,95,0.00,,,0.00,meteohub,2013-02-05 01:48:00,
2013-02-05 02:53:00,35.4,33.8,29.72,South,180,4.0,4.0,94,0.00,,,0.00,meteohub,2013-02-05 01:53:00,
2013-02-05 02:58:00,35.4,33.8,29.72,South,180,2.0,5.0,94,0.00,,,0.00,meteohub,2013-02-05 01:58:00,
2013-02-05 03:03:00,35.2,33.6,29.72,SSW,202,3.0,5.0,94,0.00,,,0.00,meteohub,2013-02-05 02:03:00,
2013-02-05 03:08:00,35.2,33.6,29.69,WSW,248,3.0,5.0,94,0.00,,,0.00,meteohub,2013-02-05 02:08:00,
2013-02-05 03:14:00,35.4,34.2,29.69,SW,225,1.0,6.0,95,0.00,,,0.00,meteohub,2013-02-05 02:14:00,
2013-02-05 03:19:00,35.2,33.6,29.69,South,180,4.0,6.0,94,0.00,,,0.00,meteohub,2013-02-05 02:19:00,
2013-02-05 03:24:00,35.2,34.0,29.69,SSW,202,5.0,6.0,95,0.00,,,0.00,meteohub,2013-02-05 02:24:00,
2013-02-05 03:29:00,35.2,34.0,29.69,SSE,158,4.0,6.0,95,0.00,,,0.00,meteohub,2013-02-05 02:29:00,
2013-02-05 03:34:00,35.1,33.8,29.69,SSW,202,3.0,5.0,95,0.00,,,0.00,meteohub,2013-02-05 02:34:00,
2013-02-05 03:39:00,35.2,34.0,29.69,SSW,202,6.0,6.0,95,0.00,,,0.00,meteohub,2013-02-05 02:39:00,
2013-02-05 03:44:00,35.2,34.0,29.69,WSW,248,6.0,6.0,95,0.00,,,0.00,meteohub,2013-02-05 02:44:00,
2013-02-05 03:49:00,35.4,34.2,29.69,SSW,202,5.0,6.0,95,0.00,,,0.00,meteohub,2013-02-05 02:49:00,
2013-02-05 03:54:00,35.2,34.0,29.66,South,180,4.0,11.0,95,0.00,,,0.00,meteohub,2013-02-05 02:54:00,
2013-02-05 03:59:00,35.4,34.2,29.66,SSW,202,5.0,11.0,95,0.00,,,0.00,meteohub,2013-02-05 02:59:00,
2013-02-05 04:04:00,35.4,34.2,29.66,SW,225,4.0,7.0,95,0.00,,,0.00,meteohub,2013-02-05 03:04:00,
2013-02-05 04:09:00,35.4,34.2,29.63,WSW,248,9.0,9.0,95,0.00,,,0.00,meteohub,2013-02-05 03:09:00,
2013-02-05 04:14:00,35.4,34.2,29.63,WSW,248,7.0,7.0,95,0.00,,,0.00,meteohub,2013-02-05 03:14:00,
2013-02-05 04:20:00,35.4,34.2,29.63,WSW,248,3.0,9.0,95,0.00,,,0.00,meteohub,2013-02-05 03:20:00,
2013-02-05 04:25:00,35.4,34.2,29.66,South,180,8.0,8.0,95,0.00,,,0.00,meteohub,2013-02-05 03:25:00,
2013-02-05 04:30:00,35.4,33.8,29.66,SSW,202,8.0,11.0,94,0.00,,,0.00,meteohub,2013-02-05 03:30:00,
2013-02-05 04:35:00,35.4,33.8,29.66,South,180,7.0,11.0,94,0.00,,,0.00,meteohub,2013-02-05 03:35:00,
2013-02-05 04:40:00,35.4,33.8,29.66,SSW,202,10.0,11.0,94,0.00,,,0.00,meteohub,2013-02-05 03:40:00,
2013-02-05 04:45:00,35.4,33.8,29.66,WSW,248,8.0,11.0,94,0.00,,,0.00,meteohub,2013-02-05 03:45:00,
2013-02-05 04:50:00,35.4,33.8,29.66,SW,225,4.0,13.0,94,0.00,,,0.00,meteohub,2013-02-05 03:50:00,
2013-02-05 04:55:00,35.2,33.6,29.66,South,180,6.0,13.0,94,0.00,,,0.00,meteohub,2013-02-05 03:55:00,
2013-02-05 05:00:00,35.2,33.6,29.66,SSW,202,3.0,13.0,94,0.00,,,0.00,meteohub,2013-02-05 04:00:00,
2013-02-05 05:05:00,35.2,33.6,29.66,SW,225,3.0,10.0,94,0.00,,,0.00,meteohub,2013-02-05 04:05:00,
2013-02-05 05:10:00,35.1,33.3,29.66,South,180,4.0,8.0,93,0.00,,,0.00,meteohub,2013-02-05 04:10:00,
2013-02-05 05:15:00,35.1,33.3,29.66,SSE,158,5.0,12.0,93,0.00,,,0.00,meteohub,2013-02-05 04:15:00,
2013-02-05 05:20:00,35.2,33.4,29.66,South,180,6.0,12.0,93,0.00,,,0.00,meteohub,2013-02-05 04:20:00,
2013-02-05 05:26:00,35.2,33.4,29.66,SSE,158,9.0,9.0,93,0.00,,,0.00,meteohub,2013-02-05 04:26:00,
2013-02-05 05:31:00,35.1,33.3,29.66,SSW,202,1.0,9.0,93,0.00,,,0.00,meteohub,2013-02-05 04:31:00,
2013-02-05 05:36:00,35.1,33.3,29.66,SSW,202,4.0,9.0,93,0.00,,,0.00,meteohub,2013-02-05 04:36:00,
2013-02-05 05:41:00,35.1,33.3,29.66,SSW,202,2.0,9.0,93,0.00,,,0.00,meteohub,2013-02-05 04:41:00,
2013-02-05 05:46:00,35.1,33.4,29.66,SSW,202,6.0,9.0,94,0.00,,,0.00,meteohub,2013-02-05 04:46:00,
2013-02-05 05:51:00,35.1,33.4,29.66,South,180,5.0,8.0,94,0.00,,,0.00,meteohub,2013-02-05 04:51:00,
2013-02-05 05:56:00,35.1,33.4,29.63,SSW,202,9.0,9.0,94,0.00,,,0.00,meteohub,2013-02-05 04:56:00,
2013-02-05 06:00:00,35.1,33.4,29.63,SSW,202,6.0,9.0,94,0.00,,,0.00,meteohub,2013-02-05 05:00:00,
2013-02-05 06:02:00,35.1,33.4,29.63,WSW,248,7.0,9.0,94,0.00,,,0.00,meteohub,2013-02-05 05:02:00,
2013-02-05 06:03:00,35.1,33.3,29.63,SSW,202,3.0,9.0,93,0.00,,,0.00,meteohub,2013-02-05 05:03:00,
2013-02-05 06:04:00,35.1,33.3,29.63,SSW,202,3.0,9.0,93,0.00,,,0.00,meteohub,2013-02-05 05:04:00,
2013-02-05 06:09:00,34.9,33.1,29.63,SSW,202,3.0,9.0,93,0.00,,,0.00,meteohub,2013-02-05 05:09:00,
2013-02-05 06:14:00,34.9,33.1,29.63,South,180,6.0,13.0,93,0.00,,,0.00,meteohub,2013-02-05 05:14:00,
2013-02-05 06:19:00,34.9,33.3,29.63,WSW,248,5.0,13.0,94,0.00,,,0.00,meteohub,2013-02-05 05:19:00,
2013-02-05 06:24:00,34.9,33.1,29.63,SSW,202,5.0,10.0,93,0.00,,,0.00,meteohub,2013-02-05 05:24:00,
2013-02-05 06:29:00,34.9,33.1,29.63,SSW,202,6.0,10.0,93,0.00,,,0.00,meteohub,2013-02-05 05:29:00,
2013-02-05 06:34:00,34.9,33.1,29.63,SSW,202,4.0,10.0,93,0.00,,,0.00,meteohub,2013-02-05 05:34:00,
2013-02-05 06:39:00,34.9,33.3,29.60,SW,225,6.0,6.0,94,0.00,,,0.00,meteohub,2013-02-05 05:39:00,
2013-02-05 06:44:00,34.9,33.3,29.60,SSW,202,5.0,9.0,94,0.00,,,0.00,meteohub,2013-02-05 05:44:00,
2013-02-05 06:49:00,34.9,33.3,29.60,SSW,202,6.0,10.0,94,0.00,,,0.00,meteohub,2013-02-05 05:49:00,
2013-02-05 06:55:00,34.9,33.3,29.60,South,180,4.0,13.0,94,0.00,,,0.00,meteohub,2013-02-05 05:55:00,
2013-02-05 07:00:00,34.9,33.3,29.60,SW,225,12.0,13.0,94,0.00,,,0.00,meteohub,2013-02-05 06:00:00,
2013-02-05 07:05:00,34.9,33.3,29.60,South,180,3.0,13.0,94,0.00,,,0.00,meteohub,2013-02-05 06:05:00,
2013-02-05 07:10:00,34.9,33.3,29.60,SSE,158,3.0,12.0,94,0.00,,,0.00,meteohub,2013-02-05 06:10:00,
2013-02-05 07:15:00,34.9,33.3,29.60,SSW,202,4.0,11.0,94,0.00,,,0.00,meteohub,2013-02-05 06:15:00,
2013-02-05 07:20:00,34.9,33.3,29.60,South,180,3.0,8.0,94,0.00,,,0.00,meteohub,2013-02-05 06:20:00,
2013-02-05 07:25:00,34.9,33.3,29.57,WSW,248,2.0,8.0,94,0.00,,,0.00,meteohub,2013-02-05 06:25:00,
2013-02-05 07:30:00,34.7,33.1,29.57,SSE,158,4.0,8.0,94,0.00,,,0.00,meteohub,2013-02-05 06:30:00,
2013-02-05 07:35:00,34.7,33.1,29.57,SW,225,3.0,8.0,94,0.00,,,0.00,meteohub,2013-02-05 06:35:00,
2013-02-05 07:40:00,34.7,33.1,29.60,SW,225,5.0,8.0,94,0.00,,,0.00,meteohub,2013-02-05 06:40:00,
2013-02-05 07:45:00,34.7,33.4,29.60,SSW,202,9.0,9.0,95,0.00,,,0.00,meteohub,2013-02-05 06:45:00,
2013-02-05 07:51:00,34.7,33.4,29.60,SSW,202,2.0,9.0,95,0.00,,,0.00,meteohub,2013-02-05 06:51:00,
2013-02-05 07:56:00,34.7,33.4,29.60,South,180,3.0,9.0,95,0.00,,,0.00,meteohub,2013-02-05 06:56:00,
2013-02-05 08:01:00,34.7,33.4,29.60,SSW,202,4.0,9.0,95,0.00,,,0.00,meteohub,2013-02-05 07:01:00,
2013-02-05 08:06:00,34.7,33.4,29.60,SW,225,4.0,8.0,95,0.00,,,0.00,meteohub,2013-02-05 07:06:00,
2013-02-05 08:11:00,34.7,33.4,29.60,SSW,202,6.0,7.0,95,0.00,,,0.00,meteohub,2013-02-05 07:11:00,
2013-02-05 08:16:00,34.9,33.6,29.60,SSW,202,3.0,6.0,95,0.00,,,0.00,meteohub,2013-02-05 07:16:00,
2013-02-05 08:21:00,34.9,33.6,29.60,WSW,248,4.0,7.0,95,0.00,,,0.00,meteohub,2013-02-05 07:21:00,
2013-02-05 08:26:00,34.9,33.6,29.60,SSW,202,4.0,7.0,95,0.00,,,0.00,meteohub,2013-02-05 07:26:00,
2013-02-05 08:31:00,34.9,33.8,29.60,SSW,202,8.0,8.0,96,0.00,,,0.00,meteohub,2013-02-05 07:31:00,
2013-02-05 08:36:00,34.9,33.8,29.60,SSW,202,4.0,11.0,96,0.00,,,0.00,meteohub,2013-02-05 07:36:00,
2013-02-05 08:41:00,35.1,34.0,29.60,SSE,158,4.0,11.0,96,0.00,,,0.00,meteohub,2013-02-05 07:41:00,
2013-02-05 08:46:00,35.1,34.0,29.60,SSW,202,6.0,11.0,96,0.00,,,0.00,meteohub,2013-02-05 07:46:00,
2013-02-05 08:51:00,35.1,34.0,29.60,SSE,158,4.0,8.0,96,0.00,,,0.00,meteohub,2013-02-05 07:51:00,
2013-02-05 08:56:00,35.1,34.0,29.60,SSW,202,4.0,8.0,96,0.00,,,0.00,meteohub,2013-02-05 07:56:00,
2013-02-05 09:01:00,35.2,34.2,29.60,SSW,202,4.0,9.0,96,0.00,,,0.00,meteohub,2013-02-05 08:01:00,
2013-02-05 09:06:00,35.2,34.2,29.60,South,180,5.0,9.0,96,0.00,,,0.00,meteohub,2013-02-05 08:06:00,
2013-02-05 09:11:00,35.2,34.2,29.57,SW,225,3.0,9.0,96,0.00,,,0.00,meteohub,2013-02-05 08:11:00,
2013-02-05 09:16:00,35.4,34.3,29.57,SSW,202,4.0,8.0,96,0.00,,,0.00,meteohub,2013-02-05 08:16:00,
2013-02-05 09:21:00,35.4,34.2,29.57,SSW,202,5.0,10.0,95,0.00,,,0.00,meteohub,2013-02-05 08:21:00,
2013-02-05 09:26:00,35.6,34.3,29.54,South,180,4.0,10.0,95,0.00,,,0.00,meteohub,2013-02-05 08:26:00,
2013-02-05 09:31:00,35.6,34.3,29.54,SSW,202,5.0,10.0,95,0.00,,,0.00,meteohub,2013-02-05 08:31:00,
2013-02-05 09:36:00,35.6,34.0,29.54,SSW,202,3.0,9.0,94,0.00,,,0.00,meteohub,2013-02-05 08:36:00,
2013-02-05 09:41:00,35.6,34.0,29.54,SSW,202,5.0,9.0,94,0.00,,,0.00,meteohub,2013-02-05 08:41:00,
2013-02-05 09:46:00,35.6,34.0,29.54,SSW,202,1.0,9.0,94,0.00,,,0.00,meteohub,2013-02-05 08:46:00,
2013-02-05 09:51:00,35.8,34.0,29.54,South,180,6.0,9.0,93,0.00,,,0.00,meteohub,2013-02-05 08:51:00,
2013-02-05 09:56:00,35.8,34.0,29.54,South,180,6.0,9.0,93,0.00,,,0.00,meteohub,2013-02-05 08:56:00,
2013-02-05 10:01:00,36.0,34.2,29.54,South,180,3.0,10.0,93,0.00,,,0.00,meteohub,2013-02-05 09:01:00,
2013-02-05 10:06:00,36.1,34.3,29.54,SSW,202,6.0,10.0,93,0.00,,,0.00,meteohub,2013-02-05 09:06:00,
2013-02-05 10:12:00,36.3,34.5,29.51,South,180,5.0,11.0,93,0.00,,,0.00,meteohub,2013-02-05 09:12:00,
2013-02-05 10:17:00,36.5,34.3,29.51,South,180,10.0,11.0,92,0.00,,,0.00,meteohub,2013-02-05 09:17:00,
2013-02-05 10:22:00,36.9,34.7,29.54,South,180,9.0,11.0,92,0.00,,,0.00,meteohub,2013-02-05 09:22:00,
2013-02-05 10:27:00,37.0,34.3,29.54,SSE,158,6.0,11.0,90,0.00,,,0.00,meteohub,2013-02-05 09:27:00,
2013-02-05 10:32:00,37.2,34.3,29.54,SSW,202,10.0,11.0,89,0.00,,,0.00,meteohub,2013-02-05 09:32:00,
2013-02-05 10:37:00,37.8,34.3,29.54,SSW,202,9.0,13.0,87,0.00,,,0.00,meteohub,2013-02-05 09:37:00,
2013-02-05 10:42:00,37.9,34.2,29.54,SSW,202,9.0,15.0,86,0.00,,,0.00,meteohub,2013-02-05 09:42:00,
2013-02-05 10:47:00,37.9,34.2,29.54,SSW,202,6.0,15.0,86,0.00,,,0.00,meteohub,2013-02-05 09:47:00,
2013-02-05 10:52:00,37.9,33.8,29.57,South,180,6.0,14.0,85,0.00,,,0.00,meteohub,2013-02-05 09:52:00,
2013-02-05 10:57:00,37.9,33.8,29.57,SSW,202,9.0,15.0,85,0.00,,,0.00,meteohub,2013-02-05 09:57:00,
2013-02-05 11:02:00,38.1,33.4,29.57,SSW,202,13.0,15.0,83,0.00,,,0.00,meteohub,2013-02-05 10:02:00,
2013-02-05 11:07:00,38.3,33.6,29.54,SSW,202,10.0,15.0,83,0.00,,,0.00,meteohub,2013-02-05 10:07:00,
2013-02-05 11:12:00,38.7,34.0,29.54,SSE,158,10.0,15.0,83,0.00,,,0.00,meteohub,2013-02-05 10:12:00,
2013-02-05 11:17:00,38.8,33.8,29.54,SSW,202,5.0,15.0,82,0.00,,,0.00,meteohub,2013-02-05 10:17:00,
2013-02-05 11:22:00,38.8,33.4,29.51,SSW,202,11.0,15.0,81,0.00,,,0.00,meteohub,2013-02-05 10:22:00,
2013-02-05 11:27:00,39.0,33.4,29.51,South,180,12.0,13.0,80,0.00,,,0.00,meteohub,2013-02-05 10:27:00,
2013-02-05 11:32:00,39.4,34.0,29.51,SW,225,6.0,13.0,81,0.00,,,0.00,meteohub,2013-02-05 10:32:00,
2013-02-05 11:37:00,39.6,34.0,29.51,SSW,202,12.0,13.0,80,0.00,,,0.00,meteohub,2013-02-05 10:37:00,
2013-02-05 11:42:00,39.4,33.1,29.51,WSW,248,9.0,13.0,78,0.00,,,0.00,meteohub,2013-02-05 10:42:00,
2013-02-05 11:47:00,39.2,32.5,29.51,WSW,248,3.0,13.0,77,0.00,,,0.00,meteohub,2013-02-05 10:47:00,
2013-02-05 11:52:00,38.8,32.2,29.51,West,270,12.0,12.0,77,0.00,,,0.00,meteohub,2013-02-05 10:52:00,
2013-02-05 11:57:00,38.5,32.2,29.51,SSW,202,10.0,13.0,78,0.00,,,0.00,meteohub,2013-02-05 10:57:00,
2013-02-05 12:02:00,38.1,32.2,29.51,South,180,7.0,13.0,79,0.00,,,0.00,meteohub,2013-02-05 11:02:00,
2013-02-05 12:07:00,37.9,32.0,29.51,South,180,11.0,12.0,79,0.00,,,0.00,meteohub,2013-02-05 11:07:00,
2013-02-05 12:12:00,37.8,31.8,29.51,SSW,202,9.0,14.0,79,0.00,,,0.00,meteohub,2013-02-05 11:12:00,
2013-02-05 12:17:00,37.8,32.5,29.51,SSW,202,9.0,14.0,81,0.00,,,0.00,meteohub,2013-02-05 11:17:00,
2013-02-05 12:22:00,37.8,32.5,29.51,South,180,9.0,14.0,81,0.00,,,0.00,meteohub,2013-02-05 11:22:00,
2013-02-05 12:27:00,38.1,33.1,29.51,SSW,202,9.0,13.0,82,0.00,,,0.00,meteohub,2013-02-05 11:27:00,
2013-02-05 12:32:00,38.5,33.3,29.51,SSW,202,8.0,11.0,81,0.00,,,0.00,meteohub,2013-02-05 11:32:00,
2013-02-05 12:37:00,38.8,33.4,29.51,WSW,248,9.0,12.0,81,0.00,,,0.00,meteohub,2013-02-05 11:37:00,
2013-02-05 12:42:00,39.0,32.7,29.51,SSE,158,8.0,12.0,78,0.00,,,0.00,meteohub,2013-02-05 11:42:00,
2013-02-05 12:47:00,39.2,32.9,29.51,South,180,5.0,11.0,78,0.00,,,0.00,meteohub,2013-02-05 11:47:00,
2013-02-05 12:52:00,39.6,32.7,29.51,South,180,7.0,11.0,76,0.00,,,0.00,meteohub,2013-02-05 11:52:00,
2013-02-05 12:57:00,39.7,32.9,29.45,SSW,202,10.0,12.0,76,0.00,,,0.00,meteohub,2013-02-05 11:57:00,
2013-02-05 13:02:00,40.1,32.5,29.45,South,180,8.0,12.0,74,0.00,,,0.00,meteohub,2013-02-05 12:02:00,
2013-02-05 13:07:00,40.5,32.5,29.48,South,180,11.0,13.0,73,0.00,,,0.00,meteohub,2013-02-05 12:07:00,
2013-02-05 13:12:00,40.8,32.5,29.48,SSE,158,4.0,15.0,72,0.00,,,0.00,meteohub,2013-02-05 12:12:00,
2013-02-05 13:17:00,40.8,32.5,29.48,SSE,158,5.0,15.0,72,0.00,,,0.00,meteohub,2013-02-05 12:17:00,
2013-02-05 13:22:00,40.3,31.3,29.48,South,180,9.0,15.0,70,0.00,,,0.00,meteohub,2013-02-05 12:22:00,
2013-02-05 13:27:00,39.9,30.9,29.48,SSW,202,9.0,15.0,70,0.00,,,0.00,meteohub,2013-02-05 12:27:00,
2013-02-05 13:32:00,39.7,31.1,29.48,South,180,11.0,15.0,71,0.00,,,0.00,meteohub,2013-02-05 12:32:00,
2013-02-05 13:37:00,39.7,31.5,29.48,SSW,202,9.0,13.0,72,0.00,,,0.00,meteohub,2013-02-05 12:37:00,
2013-02-05 13:42:00,39.6,31.3,29.48,SSW,202,11.0,13.0,72,0.00,,,0.00,meteohub,2013-02-05 12:42:00,
2013-02-05 13:47:00,39.7,31.8,29.48,SW,225,8.0,14.0,73,0.00,,,0.00,meteohub,2013-02-05 12:47:00,
2013-02-05 13:52:00,39.9,31.6,29.48,SSW,202,6.0,14.0,72,0.00,,,0.00,meteohub,2013-02-05 12:52:00,
2013-02-05 13:57:00,39.9,31.3,29.48,SSW,202,11.0,14.0,71,0.00,,,0.00,meteohub,2013-02-05 12:57:00,
2013-02-05 14:02:00,39.9,31.3,29.48,WSW,248,5.0,13.0,71,0.00,,,0.00,meteohub,2013-02-05 13:02:00,
2013-02-05 14:07:00,40.3,31.6,29.45,South,180,6.0,19.0,71,0.00,,,0.00,meteohub,2013-02-05 13:07:00,
2013-02-05 14:12:00,40.6,30.9,29.45,SSE,158,6.0,19.0,68,0.00,,,0.00,meteohub,2013-02-05 13:12:00,
2013-02-05 14:17:00,40.6,30.6,29.45,South,180,8.0,19.0,67,0.00,,,0.00,meteohub,2013-02-05 13:17:00,
2013-02-05 14:22:00,40.6,29.8,29.45,SW,225,6.0,15.0,65,0.00,,,0.00,meteohub,2013-02-05 13:22:00,
2013-02-05 14:27:00,40.6,29.8,29.45,WSW,248,5.0,14.0,65,0.00,,,0.00,meteohub,2013-02-05 13:27:00,
2013-02-05 14:34:00,40.5,29.3,29.45,WNW,292,4.0,14.0,64,0.00,,,0.00,meteohub,2013-02-05 13:34:00,
2013-02-05 14:42:00,40.3,29.1,29.45,WNW,292,6.0,12.0,64,0.00,,,0.00,meteohub,2013-02-05 13:42:00,
2013-02-05 14:47:00,40.3,29.1,29.45,WSW,248,9.0,12.0,64,0.00,,,0.00,meteohub,2013-02-05 13:47:00,
2013-02-05 15:00:00,40.1,29.7,29.45,WNW,292,6.0,13.0,66,0.00,,,0.00,meteohub,2013-02-05 14:00:00,
2013-02-05 15:05:00,39.9,29.8,29.45,WSW,248,6.0,12.0,67,0.00,,,0.00,meteohub,2013-02-05 14:05:00,
2013-02-05 15:10:00,39.9,29.8,29.42,WSW,248,2.0,11.0,67,0.00,,,0.00,meteohub,2013-02-05 14:10:00,
2013-02-05 15:15:00,39.9,29.8,29.42,WSW,248,4.0,9.0,67,0.00,,,0.00,meteohub,2013-02-05 14:15:00,
2013-02-05 15:20:00,39.7,30.0,29.42,WSW,248,5.0,8.0,68,0.00,,,0.00,meteohub,2013-02-05 14:20:00,
2013-02-05 15:25:00,39.7,30.0,29.42,South,180,8.0,10.0,68,0.00,,,0.00,meteohub,2013-02-05 14:25:00,
2013-02-05 15:30:00,39.6,30.2,29.42,SSW,202,4.0,10.0,69,0.00,,,0.00,meteohub,2013-02-05 14:30:00,
2013-02-05 15:35:00,39.4,30.4,29.42,SSW,202,3.0,12.0,70,0.00,,,0.00,meteohub,2013-02-05 14:35:00,
2013-02-05 15:40:00,39.2,30.6,29.42,SSW,202,4.0,12.0,71,0.00,,,0.00,meteohub,2013-02-05 14:40:00,
2013-02-05 15:45:00,39.0,31.1,29.42,West,270,8.0,10.0,73,0.00,,,0.00,meteohub,2013-02-05 14:45:00,
2013-02-05 15:50:00,38.8,31.3,29.42,SW,225,6.0,13.0,74,0.00,,,0.00,meteohub,2013-02-05 14:50:00,
2013-02-05 15:55:00,38.7,31.5,29.42,WSW,248,4.0,13.0,75,0.00,,,0.00,meteohub,2013-02-05 14:55:00,
2013-02-05 16:00:00,38.7,31.5,29.42,WSW,248,1.0,9.0,75,0.00,,,0.00,meteohub,2013-02-05 15:00:00,
2013-02-05 16:05:00,38.5,31.3,29.42,SSW,202,6.0,11.0,75,0.00,,,0.00,meteohub,2013-02-05 15:05:00,
2013-02-05 16:10:00,38.3,30.7,29.42,WNW,292,4.0,11.0,74,0.00,,,0.00,meteohub,2013-02-05 15:10:00,
2013-02-05 16:15:00,38.1,30.6,29.42,West,270,5.0,11.0,74,0.00,,,0.00,meteohub,2013-02-05 15:15:00,
2013-02-05 16:20:00,37.9,30.4,29.42,WNW,292,6.0,10.0,74,0.00,,,0.00,meteohub,2013-02-05 15:20:00,
2013-02-05 16:25:00,37.8,29.8,29.45,West,270,8.0,10.0,73,0.00,,,0.00,meteohub,2013-02-05 15:25:00,
2013-02-05 16:30:00,37.8,29.7,29.45,West,270,6.0,13.0,72,0.00,,,0.00,meteohub,2013-02-05 15:30:00,
2013-02-05 16:36:00,37.6,29.1,29.45,WSW,248,6.0,15.0,71,0.00,,,0.00,meteohub,2013-02-05 15:36:00,
2013-02-05 16:41:00,37.4,28.9,29.42,West,270,6.0,15.0,71,0.00,,,0.00,meteohub,2013-02-05 15:41:00,
2013-02-05 16:46:00,37.2,28.8,29.42,WSW,248,2.0,15.0,71,0.00,,,0.00,meteohub,2013-02-05 15:46:00,
2013-02-05 16:51:00,37.0,28.6,29.42,WNW,292,6.0,11.0,71,0.00,,,0.00,meteohub,2013-02-05 15:51:00,
2013-02-05 16:56:00,36.9,28.4,29.42,SSW,202,5.0,11.0,71,0.00,,,0.00,meteohub,2013-02-05 15:56:00,
2013-02-05 17:01:00,36.9,28.0,29.42,WNW,292,9.0,10.0,70,0.00,,,0.00,meteohub,2013-02-05 16:01:00,
2013-02-05 17:06:00,36.9,28.4,29.42,WSW,248,3.0,10.0,71,0.00,,,0.00,meteohub,2013-02-05 16:06:00,
2013-02-05 17:11:00,36.7,27.9,29.45,West,270,4.0,9.0,70,0.00,,,0.00,meteohub,2013-02-05 16:11:00,
2013-02-05 17:17:00,36.5,28.0,29.45,WSW,248,6.0,11.0,71,0.00,,,0.00,meteohub,2013-02-05 16:17:00,
2013-02-05 17:22:00,36.3,28.2,29.45,WNW,292,8.0,13.0,72,0.00,,,0.00,meteohub,2013-02-05 16:22:00,
2013-02-05 17:27:00,36.0,25.0,29.48,WSW,248,10.0,13.0,64,0.00,,,0.00,meteohub,2013-02-05 16:27:00,
2013-02-05 17:32:00,35.8,24.1,29.48,WNW,292,11.0,12.0,62,0.00,,,0.00,meteohub,2013-02-05 16:32:00,
2013-02-05 17:37:00,35.8,24.4,29.48,WNW,292,6.0,17.0,63,0.00,,,0.00,meteohub,2013-02-05 16:37:00,
2013-02-05 17:42:00,35.6,25.0,29.48,West,270,4.0,17.0,65,0.00,,,0.00,meteohub,2013-02-05 16:42:00,
2013-02-05 17:47:00,35.6,25.3,29.48,West,270,8.0,17.0,66,0.00,,,0.00,meteohub,2013-02-05 16:47:00,
2013-02-05 17:52:00,35.1,27.0,29.48,WSW,248,6.0,15.0,72,0.00,,,0.00,meteohub,2013-02-05 16:52:00,
2013-02-05 17:57:00,34.9,27.5,29.48,West,270,6.0,17.0,74,0.00,,,0.00,meteohub,2013-02-05 16:57:00,
2013-02-05 18:02:00,34.9,27.9,29.48,WSW,248,6.0,17.0,75,0.00,,,0.00,meteohub,2013-02-05 17:02:00,
2013-02-05 18:07:00,34.9,27.9,29.48,WSW,248,4.0,10.0,75,0.00,,,0.00,meteohub,2013-02-05 17:07:00,
2013-02-05 18:12:00,34.9,27.9,29.48,WSW,248,3.0,6.0,75,0.00,,,0.00,meteohub,2013-02-05 17:12:00,
2013-02-05 18:17:00,34.9,27.9,29.48,NW,315,2.0,6.0,75,0.00,,,0.00,meteohub,2013-02-05 17:17:00,
2013-02-05 18:22:00,34.7,27.3,29.48,WSW,248,6.0,7.0,74,0.00,,,0.00,meteohub,2013-02-05 17:22:00,
2013-02-05 18:28:00,34.7,27.3,29.48,West,270,4.0,7.0,74,0.00,,,0.00,meteohub,2013-02-05 17:28:00,
2013-02-05 18:33:00,34.5,27.5,29.48,WNW,292,5.0,9.0,75,0.00,,,0.00,meteohub,2013-02-05 17:33:00,
2013-02-05 18:38:00,34.3,27.5,29.48,WNW,292,5.0,9.0,76,0.00,,,0.00,meteohub,2013-02-05 17:38:00,
2013-02-05 18:43:00,34.3,27.5,29.48,WSW,248,6.0,11.0,76,0.00,,,0.00,meteohub,2013-02-05 17:43:00,
2013-02-05 18:50:00,33.8,27.7,29.48,WNW,292,6.0,11.0,78,0.00,,,0.00,meteohub,2013-02-05 17:50:00,
2013-02-05 18:56:00,33.6,27.9,29.51,West,270,4.0,10.0,79,0.00,,,0.00,meteohub,2013-02-05 17:56:00,
2013-02-05 19:01:00,33.6,27.9,29.51,WSW,248,1.0,10.0,79,0.00,,,0.00,meteohub,2013-02-05 18:01:00,
2013-02-05 19:09:00,33.4,27.7,29.48,SSW,202,4.0,8.0,79,0.00,,,0.00,meteohub,2013-02-05 18:09:00,
2013-02-05 19:14:00,33.4,27.7,29.48,SE,135,2.0,7.0,79,0.00,,,0.00,meteohub,2013-02-05 18:14:00,
2013-02-05 19:19:00,33.4,27.7,29.48,NW,315,4.0,7.0,79,0.00,,,0.00,meteohub,2013-02-05 18:19:00,
2013-02-05 19:24:00,33.4,27.3,29.48,SSW,202,2.0,7.0,78,0.00,,,0.00,meteohub,2013-02-05 18:24:00,
2013-02-05 19:29:00,33.3,27.1,29.48,East,90,1.0,7.0,78,0.00,,,0.00,meteohub,2013-02-05 18:29:00,
2013-02-05 19:34:00,33.3,27.1,29.48,South,180,2.0,5.0,78,0.00,,,0.00,meteohub,2013-02-05 18:34:00,
2013-02-05 19:39:00,33.3,26.8,29.48,SSW,202,1.0,5.0,77,0.00,,,0.00,meteohub,2013-02-05 18:39:00,
2013-02-05 19:44:00,33.3,26.8,29.48,SSE,158,3.0,7.0,77,0.00,,,0.00,meteohub,2013-02-05 18:44:00,
2013-02-05 19:49:00,33.3,26.6,29.48,SSW,202,2.0,7.0,76,0.00,,,0.00,meteohub,2013-02-05 18:49:00,
2013-02-05 19:54:00,33.3,26.6,29.48,WSW,248,3.0,7.0,76,0.00,,,0.00,meteohub,2013-02-05 18:54:00,
2013-02-05 20:00:00,33.3,26.6,29.48,SSW,202,4.0,6.0,76,0.00,,,0.00,meteohub,2013-02-05 19:00:00,
2013-02-05 20:05:00,33.3,26.2,29.48,SSW,202,3.0,4.0,75,0.00,,,0.00,meteohub,2013-02-05 19:05:00,
2013-02-05 20:10:00,33.3,26.2,29.48,SSW,202,4.0,6.0,75,0.00,,,0.00,meteohub,2013-02-05 19:10:00,
2013-02-05 20:15:00,33.3,26.6,29.48,SE,135,2.0,6.0,76,0.00,,,0.00,meteohub,2013-02-05 19:15:00,
2013-02-05 20:20:00,33.3,26.6,29.48,SSW,202,3.0,6.0,76,0.00,,,0.00,meteohub,2013-02-05 19:20:00,
2013-02-05 20:25:00,33.3,26.6,29.48,WSW,248,3.0,6.0,76,0.00,,,0.00,meteohub,2013-02-05 19:25:00,
2013-02-05 20:30:00,33.3,26.6,29.48,WSW,248,0.0,5.0,76,0.00,,,0.00,meteohub,2013-02-05 19:30:00,
2013-02-05 20:35:00,33.1,26.4,29.48,SW,225,4.0,8.0,76,0.00,,,0.00,meteohub,2013-02-05 19:35:00,
2013-02-05 20:40:00,33.1,26.4,29.48,SSW,202,4.0,8.0,76,0.00,,,0.00,meteohub,2013-02-05 19:40:00,
2013-02-05 20:45:00,33.1,26.4,29.48,WSW,248,2.0,8.0,76,0.00,,,0.00,meteohub,2013-02-05 19:45:00,
2013-02-05 20:50:00,33.1,26.6,29.48,SSW,202,2.0,4.0,77,0.00,,,0.00,meteohub,2013-02-05 19:50:00,
2013-02-05 20:56:00,33.1,27.0,29.48,SSW,202,4.0,4.0,78,0.00,,,0.00,meteohub,2013-02-05 19:56:00,
2013-02-05 21:01:00,32.9,27.1,29.48,South,180,4.0,5.0,79,0.00,,,0.00,meteohub,2013-02-05 20:01:00,
2013-02-05 21:06:00,32.9,27.1,29.48,SW,225,1.0,5.0,79,0.00,,,0.00,meteohub,2013-02-05 20:06:00,
2013-02-05 21:11:00,32.9,27.1,29.45,SW,225,3.0,6.0,79,0.00,,,0.00,meteohub,2013-02-05 20:11:00,
2013-02-05 21:16:00,32.7,27.0,29.45,SSW,202,0.0,6.0,79,0.00,,,0.00,meteohub,2013-02-05 20:16:00,
2013-02-05 21:21:00,32.5,26.8,29.45,SSE,158,1.0,4.0,79,0.00,,,0.00,meteohub,2013-02-05 20:21:00,
2013-02-05 21:26:00,32.5,27.1,29.48,SSW,202,3.0,4.0,80,0.00,,,0.00,meteohub,2013-02-05 20:26:00,
2013-02-05 21:31:00,32.4,27.0,29.48,SW,225,3.0,3.0,80,0.00,,,0.00,meteohub,2013-02-05 20:31:00,
2013-02-05 21:36:00,32.2,27.0,29.45,South,180,2.0,4.0,81,0.00,,,0.00,meteohub,2013-02-05 20:36:00,
2013-02-05 21:42:00,32.0,27.1,29.45,WNW,292,3.0,4.0,82,0.00,,,0.00,meteohub,2013-02-05 20:42:00,
2013-02-05 21:47:00,32.0,27.1,29.45,South,180,2.0,4.0,82,0.00,,,0.00,meteohub,2013-02-05 20:47:00,
2013-02-05 21:52:00,32.0,27.5,29.45,WSW,248,4.0,4.0,83,0.00,,,0.00,meteohub,2013-02-05 20:52:00,
2013-02-05 21:57:00,31.8,27.5,29.45,West,270,1.0,4.0,84,0.00,,,0.00,meteohub,2013-02-05 20:57:00,
2013-02-05 22:02:00,31.8,27.5,29.45,West,270,3.0,6.0,84,0.00,,,0.00,meteohub,2013-02-05 21:02:00,
2013-02-05 22:07:00,31.8,27.9,29.48,WSW,248,3.0,6.0,85,0.00,,,0.00,meteohub,2013-02-05 21:07:00,
2013-02-05 22:12:00,31.8,27.9,29.48,WSW,248,2.0,6.0,85,0.00,,,0.00,meteohub,2013-02-05 21:12:00,
2013-02-05 22:17:00,31.8,27.9,29.48,WNW,292,3.0,5.0,85,0.00,,,0.00,meteohub,2013-02-05 21:17:00,
2013-02-05 22:22:00,32.0,28.2,29.48,SSW,202,3.0,3.0,86,0.00,,,0.00,meteohub,2013-02-05 21:22:00,
2013-02-05 22:27:00,32.0,28.2,29.48,South,180,3.0,6.0,86,0.00,,,0.00,meteohub,2013-02-05 21:27:00,
2013-02-05 22:32:00,32.0,28.6,29.48,SSE,158,2.0,6.0,87,0.00,,,0.00,meteohub,2013-02-05 21:32:00,
2013-02-05 22:39:00,31.8,28.0,29.48,SSW,202,3.0,6.0,86,0.00,,,0.00,meteohub,2013-02-05 21:39:00,
2013-02-05 22:44:00,31.6,28.2,29.48,SSW,202,5.0,5.0,87,0.00,,,0.00,meteohub,2013-02-05 21:44:00,
2013-02-05 22:49:00,31.6,28.2,29.48,WSW,248,3.0,6.0,87,0.00,,,0.00,meteohub,2013-02-05 21:49:00,
2013-02-05 22:54:00,31.5,27.7,29.48,SSW,202,3.0,6.0,86,0.00,,,0.00,meteohub,2013-02-05 21:54:00,
2013-02-05 22:59:00,31.5,28.0,29.48,SSE,158,3.0,5.0,87,0.00,,,0.00,meteohub,2013-02-05 21:59:00,
2013-02-05 23:04:00,31.3,27.9,29.48,SSW,202,4.0,4.0,87,0.00,,,0.00,meteohub,2013-02-05 22:04:00,
2013-02-05 23:09:00,31.5,28.0,29.48,SW,225,6.0,6.0,87,0.00,,,0.00,meteohub,2013-02-05 22:09:00,
2013-02-05 23:14:00,31.5,28.0,29.48,SSW,202,5.0,8.0,87,0.00,,,0.00,meteohub,2013-02-05 22:14:00,
2013-02-05 23:20:00,31.5,28.0,29.48,ESE,112,3.0,8.0,87,0.00,,,0.00,meteohub,2013-02-05 22:20:00,
2013-02-05 23:37:00,31.6,27.9,-100.00,WSW,248,2.0,10.0,86,0.00,,,0.00,meteohub,2013-02-05 22:37:00,
2013-02-05 23:42:00,31.6,27.9,29.51,WSW,248,1.0,10.0,86,0.00,,,0.00,meteohub,2013-02-05 22:42:00,
2013-02-05 23:48:00,31.5,27.7,29.51,WSW,248,3.0,6.0,86,0.00,,,0.00,meteohub,2013-02-05 22:48:00,
2013-02-05 23:53:00,31.5,27.7,29.48,SSW,202,1.0,4.0,86,0.00,,,0.00,meteohub,2013-02-05 22:53:00,
2013-02-05 23:58:00,31.3,27.7,29.48,WNW,292,2.0,4.0,86,0.00,,,0.00,meteohub,2013-02-05 22:58:00,